Location: Colorado Springs
(38.8340°N, 104.8210°W)
Time: 23:53:14
(UTC-06:00)

Tiangong 2 - Pass Details

Date: 11 October 2017
Orbit: 388 x 392 km, 42.8° (Epoch: 17 October)

Event Time Altitude Azimuth Distance (km) Brightness Sun altitude
Exits shadow 05:43:27 47° 290° (WNW) 524 1.3 -16.7°
Maximum altitude 05:44:07 62° 344° (NNW) 444 1.2 -16.5°
Drops below altitude 10° 05:47:18 10° 66° (ENE) 1,423 5.1 -15.9°
Sets 05:49:24 0° 70° (ENE) 2,281 6.5 -15.5°
